User: anonymous   Login
Location: Bluff Heights
(33.7692°N, 118.1592°W)
Time: 06:47:33
(UTC+00:00)
Language:

Transit 2A - Orbit

View from above orbital plane
View from above orbital plane
View from above satellite
View from above satellite

Ground track
Ground track

The orbit data is extracted from the following two-line orbital elements,

1 00045U 60007A   21211.88721893 -.00000071  00000-0  91236-5 0  9990
2 00045  66.6953  24.5581 0253033  16.7025 344.2217 14.33728345124389
Epoch (UTC): 30 July 2021 21:17:35
Eccentricity: 0.0253033
inclination: 66.6953°
perigee height: 598 km
apogee height: 960 km
right ascension of ascending node: 24.5581°
argument of perigee: 16.7025°
revolutions per day: 14.33728345
mean anomaly at epoch: 344.2217°
orbit number at epoch: 12438

The dashed part of the orbit path shows where the satellite is in the earth's shadow,  

DLR